GW5112 Weather Reports


time (UTC)temp
C
wind
direction
speed
KPH
gust
KPH
rain 1hr
cm
rain 24hr
cm
rain mn
cm
humidity
%
barometer
mb
20260510180506 21 52 3.2 9.7 0.00 0.00 0.00 70 1017.1
20260510180003 21 21 3.2 6.4 0.00 0.00 0.00 71 1017.3
20260510175458 22 27 4.8 11.3 0.00 0.00 0.00 70 1016.9
20260510174954 21 16 4.8 6.4 0.00 0.00 0.00 69 1017.2
20260510174452 21 323 4.8 4.8 0.00 0.00 0.00 68 1017.1
20260510173949 21 58 8.0 11.3 0.00 0.00 0.00 73 1016.9
20260510173445 21 67 8.0 11.3 0.00 0.00 0.00 69 1017.0
20260510172941 21 347 4.8 6.4 0.00 0.00 0.00 69 1017.0
20260510172437 21 39 3.2 9.7 0.00 0.00 0.00 67 1016.9
20260510171933 22 285 1.6 9.7 0.00 0.00 0.00 68 1017.0
20260510171431 20 56 6.4 6.4 0.00 0.00 0.00 68 1016.9
20260510170927 21 51 3.2 6.4 0.00 0.00 0.00 72 1016.8
20260510170424 21 335 3.2 9.7 0.00 0.00 0.00 71 1016.9
20260510165919 21 16 3.2 3.2 0.00 0.00 0.00 70 1017.0
20260510165416 20 71 1.6 4.8 0.00 0.00 0.00 75 1017.0
20260510164913 20 24 3.2 4.8 0.00 0.00 0.00 70 1016.9
20260510164410 20 47 3.2 3.2 0.00 0.00 0.00 72 1016.9
20260510163905 19 32 0.0 0.0 0.00 0.00 0.00 75 1016.9
20260510163401 19 290 0.0 1.6 0.00 0.00 0.00 75 1017.0
20260510162900 19 270 0.0 3.2 0.00 0.00 0.00 74 1016.9
20260510162359 19 31 1.6 3.2 0.00 0.00 0.00 73 1016.9
20260510161854 19 318 0.0 1.6 0.00 0.00 0.00 73 1016.9
20260510161350 19 352 0.0 1.6 0.00 0.00 0.00 74 1016.9
20260510160847 19 357 3.2 4.8 0.00 0.00 0.00 74 1016.9
20260510160344 19 218 3.2 3.2 0.00 0.00 0.00 73 1016.9
20260510155838 19 47 9.7 11.3 0.00 0.00 0.00 76 1017.0
20260510155336 18 50 6.4 9.7 0.00 0.00 0.00 73 1016.8
20260510154832 19 348 3.2 6.4 0.00 0.00 0.00 75 1016.8
20260510154327 20 249 1.6 4.8 0.00 0.00 0.00 71 1016.7
20260510153822 20 12 3.2 3.2 0.00 0.00 0.00 71 1016.7
20260510153318 18 350 0.0 1.6 0.00 0.00 0.00 74 1016.7
20260510152815 18 350 0.0 1.6 0.00 0.00 0.00 74 1016.7
20260510152311 18 338 0.0 4.8 0.00 0.00 0.00 75 1016.8
20260510151808 18 353 1.6 3.2 0.00 0.00 0.00 75 1017.0
20260510151306 18 284 0.0 4.8 0.00 0.00 0.00 75 1016.9
20260510150801 18 289 1.6 3.2 0.00 0.00 0.00 75 1016.7
20260510150257 18 50 0.0 1.6 0.00 0.00 0.00 73 1016.5
20260510145753 19 2 1.6 3.2 0.00 0.00 0.00 72 1016.5
20260510145250 19 243 1.6 3.2 0.00 0.00 0.00 71 1016.2
20260510144746 18 239 1.6 4.8 0.00 0.00 0.00 72 1015.6
20260510144244 19 174 3.2 4.8 0.00 0.00 0.00 71 1015.7
20260510143737 20 16 1.6 3.2 0.00 0.00 0.00 70 1015.9
20260510143234 20 284 0.0 1.6 0.00 0.00 0.00 72 1016.2
20260510142730 20 222 3.2 3.2 0.00 0.00 0.00 71 1016.3
20260510142227 20 197 1.6 3.2 0.00 0.00 0.00 72 1016.5
20260510141724 20 253 1.6 6.4 0.00 0.00 0.00 68 1016.2
20260510141223 19 248 3.2 6.4 0.00 0.00 0.00 71 1016.3
20260510140719 19 278 3.2 6.4 0.00 0.00 0.00 72 1016.2
20260510140219 18 205 1.6 6.4 0.00 0.00 0.00 73 1016.3
20260510135709 19 208 1.6 4.8 0.00 0.00 0.00 75 1016.2
20260510135205 19 262 3.2 6.4 0.00 0.00 0.00 71 1016.1
20260510134702 18 156 1.6 4.8 0.00 0.00 0.00 76 1016.3
20260510134159 18 215 1.6 3.2 0.00 0.00 0.00 76 1016.2
20260510133655 18 203 4.8 6.4 0.00 0.00 0.00 75 1016.2
20260510133151 18 194 3.2 3.2 0.00 0.00 0.00 75 1016.2
20260510132647 17 254 4.8 6.4 0.00 0.00 0.00 76 1016.2
20260510132145 17 247 4.8 4.8 0.00 0.00 0.00 76 1016.2
20260510131642 17 300 3.2 4.8 0.00 0.00 0.00 78 1016.0
20260510131140 17 254 1.6 6.4 0.00 0.00 0.00 80 1016.0
20260510130636 17 223 0.0 4.8 0.00 0.00 0.00 80 1015.9
20260510130133 17 283 3.2 4.8 0.00 0.00 0.00 78 1016.2
20260510125629 17 253 4.8 4.8 0.00 0.00 0.00 78 1016.0
20260510125126 17 147 0.0 0.0 0.00 0.00 0.00 78 1015.9
20260510124623 17 198 0.0 0.0 0.00 0.00 0.00 78 1015.9
20260510124119 16 190 0.0 3.2 0.00 0.00 0.00 82 1015.8
20260510123615 16 194 1.6 3.2 0.00 0.00 0.00 82 1015.7
20260510123111 16 252 1.6 3.2 0.00 0.00 0.00 80 1015.7
20260510122607 16 240 0.0 1.6 0.00 0.00 0.00 82 1015.6
20260510122103 15 181 0.0 0.0 0.00 0.00 0.00 83 1015.6
20260510121600 15 223 3.2 3.2 0.00 0.00 0.00 86 1015.6
20260510121057 14 259 1.6 1.6 0.00 0.00 0.00 91 1015.6
20260510120556 13 215 0.0 1.6 0.00 0.00 0.00 97 1015.6
20260510120055 12 261 0.0 0.0 0.00 0.00 0.00 99 1015.6
20260510115552 12 261 0.0 0.0 0.00 0.00 0.00 99 1015.5
20260510115050 11 261 0.0 0.0 0.00 0.00 0.00 99 1015.5
20260510114545 11 261 0.0 1.6 0.00 0.00 0.00 99 1015.4
20260510114042 11 292 0.0 0.0 0.00 0.00 0.00 99 1015.1
20260510113537 11 292 0.0 1.6 0.00 0.00 0.00 99 1015.2
20260510113035 10 292 0.0 0.0 0.00 0.00 0.00 99 1015.1
20260510112531 10 292 0.0 0.0 0.00 0.00 0.00 99 1015.0
20260510112028 10 258 0.0 0.0 0.00 0.00 0.00 99 1015.0
20260510111525 10 257 1.6 1.6 0.00 0.00 0.00 99 1015.0
20260510111020 10 257 0.0 0.0 0.00 0.00 0.00 99 1014.9
20260510110517 10 257 0.0 0.0 0.00 0.00 0.00 99 1014.7
20260510110013 9 257 0.0 0.0 0.00 0.00 0.00 99 1014.6
20260510105508 9 257 0.0 0.0 0.00 0.00 0.00 99 1014.4
20260510105003 9 257 0.0 0.0 0.00 0.00 0.00 99 1014.4
20260510104500 9 257 0.0 0.0 0.00 0.00 0.00 99 1014.5
20260510103956 10 257 0.0 1.6 0.00 0.00 0.00 99 1014.4
20260510103454 10 257 0.0 0.0 0.00 0.00 0.00 99 1014.3
20260510102949 10 257 0.0 1.6 0.00 0.00 0.00 99 1014.1
20260510102445 10 22 1.6 1.6 0.00 0.00 0.00 99 1014.0
20260510101942 10 28 0.0 1.6 0.00 0.00 0.00 99 1013.7
20260510101440 10 27 0.0 0.0 0.00 0.00 0.00 99 1013.8
20260510100938 10 27 0.0 1.6 0.00 0.00 0.00 99 1013.9
20260510100434 10 29 0.0 0.0 0.00 0.00 0.00 99 1014.0
20260510095931 9 29 1.6 1.6 0.00 0.00 0.00 99 1013.8
20260510095426 9 29 0.0 0.0 0.00 0.00 0.00 99 1014.0
20260510094925 9 29 0.0 1.6 0.00 0.00 0.00 99 1013.7
20260510094420 10 29 0.0 0.0 0.00 0.00 0.00 99 1013.5
20260510093917 10 29 0.0 0.0 0.00 0.00 0.00 99 1013.3
20260510093412 10 29 0.0 0.0 0.00 0.00 0.00 99 1013.4
20260510092910 10 29 0.0 0.0 0.00 0.00 0.00 99 1013.2
20260510092407 10 29 0.0 0.0 0.00 0.00 0.00 99 1013.3
20260510091906 10 29 0.0 0.0 0.00 0.00 0.00 99 1013.1
20260510091404 10 29 0.0 0.0 0.00 0.00 0.00 99 1013.1
20260510090900 10 325 0.0 1.6 0.00 0.00 0.00 99 1013.2
20260510090357 10 320 0.0 1.6 0.00 0.00 0.00 99 1013.0
20260510085852 10 63 0.0 1.6 0.00 0.00 0.00 99 1013.1
20260510085348 10 63 0.0 0.0 0.00 0.00 0.00 99 1013.0
20260510084843 10 63 0.0 1.6 0.00 0.00 0.00 99 1012.9
20260510084341 10 62 0.0 1.6 0.00 0.00 0.00 99 1013.3
20260510083838 10 62 0.0 0.0 0.00 0.00 0.00 99 1013.0
20260510083334 10 62 0.0 0.0 0.00 0.00 0.00 99 1013.1
20260510082830 10 62 0.0 0.0 0.00 0.00 0.00 99 1012.9
20260510082327 11 62 0.0 0.0 0.00 0.00 0.00 98 1013.0
20260510081826 11 62 0.0 0.0 0.00 0.00 0.00 98 1013.1
20260510081322 11 62 0.0 0.0 0.00 0.00 0.00 98 1013.0
20260510080818 11 62 0.0 0.0 0.00 0.00 0.00 98 1012.8
20260510080313 11 62 0.0 0.0 0.00 0.00 0.00 98 1012.8
20260510075810 11 61 0.0 0.0 0.00 0.00 0.00 98 1012.8
20260510075308 11 61 0.0 0.0 0.00 0.00 0.00 98 1012.6
20260510074805 11 39 0.0 0.0 0.00 0.00 0.00 98 1012.8
20260510074302 11 35 0.0 0.0 0.00 0.00 0.00 97 1012.7
20260510073757 11 35 0.0 0.0 0.00 0.00 0.00 97 1012.6
20260510073254 11 28 0.0 0.0 0.00 0.00 0.00 97 1012.6
20260510072749 11 27 0.0 0.0 0.00 0.00 0.00 97 1012.8
20260510072246 11 24 0.0 0.0 0.00 0.00 0.00 97 1013.0
20260510071742 11 10 0.0 0.0 0.00 0.00 0.00 96 1012.6
20260510071239 11 10 0.0 0.0 0.00 0.00 0.00 96 1012.9
20260510070738 11 10 0.0 0.0 0.00 0.00 0.00 95 1012.6
20260510070235 12 10 0.0 0.0 0.00 0.00 0.00 94 1012.5
20260510065734 12 10 0.0 1.6 0.00 0.00 0.00 94 1012.7
20260510065231 12 321 0.0 1.6 0.00 0.00 0.00 95 1012.5
20260510064728 12 325 0.0 0.0 0.00 0.00 0.00 96 1012.7
20260510064226 11 200 0.0 0.0 0.00 0.00 0.00 96 1012.5
20260510063722 11 218 1.6 3.2 0.00 0.00 0.00 96 1012.5
20260510063218 11 234 0.0 0.0 0.00 0.00 0.00 96 1012.4
20260510062715 12 225 0.0 0.0 0.00 0.00 0.00 95 1012.7
20260510062211 12 225 0.0 0.0 0.00 0.00 0.00 95 1012.7
20260510061706 12 211 0.0 0.0 0.00 0.00 0.00 95 1012.7
20260510061204 12 212 0.0 0.0 0.00 0.00 0.00 94 1012.7
20260510060700 12 222 0.0 3.2 0.00 0.00 0.00 95 1012.4
20260510060157 11 180 0.0 1.6 0.00 0.00 0.00 96 1012.7
20260510055653 12 181 0.0 1.6 0.00 0.00 0.00 96 1012.7
20260510055151 12 183 0.0 0.0 0.00 0.00 0.00 97 1012.7
20260510054647 11 183 0.0 0.0 0.00 0.00 0.00 97 1012.6
20260510054143 11 183 0.0 0.0 0.00 0.00 0.00 97 1012.9
20260510053641 12 183 0.0 0.0 0.00 0.00 0.00 96 1012.8
20260510053138 12 183 0.0 0.0 0.00 0.00 0.00 96 1012.8
20260510052635 12 183 0.0 0.0 0.00 0.00 0.00 96 1012.7
20260510052131 12 183 0.0 0.0 0.00 0.00 0.00 96 1012.8
20260510051626 12 183 0.0 0.0 0.00 0.00 0.00 95 1012.7
20260510051123 12 183 0.0 0.0 0.00 0.00 0.00 95 1012.8
20260510050621 12 183 0.0 0.0 0.00 0.00 0.00 95 1012.8
20260510050118 12 183 0.0 0.0 0.00 0.00 0.00 95 1012.8
20260510045615 12 183 0.0 0.0 0.00 0.00 0.00 94 1012.9
20260510045111 12 183 0.0 1.6 0.00 0.00 0.00 93 1012.9
20260510044607 12 183 1.6 1.6 0.00 0.00 0.00 93 1012.9
20260510044105 13 201 0.0 0.0 0.00 0.00 0.00 91 1013.2
20260510043600 14 201 0.0 1.6 0.00 0.00 0.00 88 1013.0
20260510043056 13 207 3.2 3.2 0.00 0.00 0.00 88 1012.9
20260510042555 13 182 1.6 3.2 0.00 0.00 0.00 90 1012.9
20260510042051 13 188 0.0 1.6 0.00 0.00 0.00 92 1013.0
20260510041548 12 171 0.0 0.0 0.00 0.00 0.00 94 1013.2
20260510041045 12 171 1.6 1.6 0.00 0.00 0.00 95 1013.0
20260510040542 12 171 1.6 1.6 0.00 0.00 0.00 95 1012.9
20260510040038 12 172 0.0 0.0 0.00 0.00 0.00 94 1013.0
20260510035534 12 172 0.0 0.0 0.00 0.00 0.00 94 1013.0
20260510035033 12 172 0.0 0.0 0.00 0.00 0.00 94 1013.1
20260510034533 12 172 0.0 0.0 0.00 0.00 0.00 93 1013.0
20260510034029 12 172 0.0 0.0 0.00 0.00 0.00 93 1013.0
20260510033524 12 173 0.0 1.6 0.00 0.00 0.00 92 1012.9
20260510033023 12 206 0.0 3.2 0.00 0.00 0.00 93 1013.1
20260510032519 12 134 0.0 0.0 0.00 0.00 0.00 94 1012.9
20260510032014 12 134 0.0 0.0 0.00 0.00 0.00 94 1012.9
20260510031510 12 134 0.0 0.0 0.00 0.00 0.00 94 1012.9
20260510031006 12 134 0.0 0.0 0.00 0.00 0.00 94 1012.7
20260510030502 12 134 0.0 0.0 0.00 0.00 0.00 94 1012.9
20260510025959 12 134 0.0 0.0 0.00 0.00 0.00 93 1012.9
20260510025456 12 134 0.0 0.0 0.00 0.00 0.00 93 1012.7
20260510024953 12 134 0.0 0.0 0.00 0.00 0.00 93 1012.8
20260510024450 12 134 0.0 0.0 0.00 0.00 0.00 93 1012.7
20260510023945 12 134 0.0 0.0 0.00 0.00 0.00 93 1012.5
20260510023442 12 134 0.0 0.0 0.00 0.00 0.00 92 1012.5
20260510022939 13 134 0.0 0.0 0.00 0.00 0.00 92 1012.5
20260510022438 12 134 0.0 0.0 0.00 0.00 0.00 92 1012.1
20260510021937 13 134 0.0 0.0 0.00 0.00 0.00 92 1012.2
20260510021435 13 134 0.0 0.0 0.00 0.00 0.00 91 1012.2
20260510020932 13 134 0.0 0.0 0.00 0.00 0.00 91 1012.2
20260510020426 13 134 0.0 0.0 0.00 0.00 0.00 90 1012.1
20260510015922 13 134 0.0 0.0 0.00 0.00 0.00 89 1012.2
20260510015419 13 134 0.0 0.0 0.00 0.00 0.00 89 1012.0
20260510014913 13 134 0.0 0.0 0.00 0.00 0.00 89 1011.9
20260510014411 13 134 0.0 0.0 0.00 0.00 0.00 89 1011.9
20260510013908 13 134 0.0 0.0 0.00 0.00 0.00 88 1011.8
20260510013403 14 134 0.0 0.0 0.00 0.00 0.00 87 1011.7
20260510012858 14 134 0.0 0.0 0.00 0.00 0.00 86 1011.5
20260510012353 14 134 0.0 0.0 0.00 0.00 0.00 85 1011.3
20260510011848 15 134 0.0 0.0 0.00 0.00 0.00 84 1011.3
20260510011344 15 134 0.0 0.0 0.00 0.00 0.00 82 1011.2
20260510010840 16 134 0.0 0.0 0.00 0.00 0.00 79 1011.2
20260510010338 16 134 0.0 3.2 0.00 0.00 0.00 76 1011.0
20260510005834 16 134 1.6 3.2 0.00 0.00 0.00 78 1011.1
20260510005330 16 133 0.0 1.6 0.00 0.00 0.00 79 1010.9
20260510004828 16 133 0.0 1.6 0.00 0.00 0.00 77 1010.9
20260510004326 16 202 0.0 0.0 0.00 0.00 0.00 78 1010.9
20260510003823 17 202 0.0 1.6 0.00 0.00 0.00 73 1010.8
20260510003320 18 203 0.0 1.6 0.00 0.00 0.00 72 1010.8
20260510002818 18 186 0.0 0.0 0.00 0.00 0.00 69 1010.7
20260510002316 18 214 1.6 1.6 0.00 0.00 0.00 68 1010.8
20260510001812 18 209 3.2 3.2 0.00 0.00 0.00 67 1010.7
20260510001311 19 212 3.2 9.7 0.00 0.00 0.00 66 1010.7
20260510000806 19 169 3.2 6.4 0.00 0.00 0.00 65 1010.5
20260510000304 20 239 3.2 6.4 0.00 0.00 0.00 65 1010.5
20260509235801 20 210 3.2 4.8 0.00 0.00 0.00 64 1010.5
20260509235257 20 234 1.6 3.2 0.00 0.00 0.00 64 1010.4
20260509234753 20 212 3.2 6.4 0.00 0.00 0.00 62 1010.4
20260509234250 20 267 8.0 9.7 0.00 0.00 0.00 62 1010.3
20260509233749 20 203 8.0 11.3 0.00 0.00 0.00 61 1010.5
20260509233246 20 215 6.4 6.4 0.00 0.00 0.00 61 1010.2
20260509232741 21 229 1.6 4.8 0.00 0.00 0.00 61 1010.3
20260509232239 21 151 6.4 12.9 0.00 0.00 0.00 60 1010.4
20260509231735 21 231 3.2 12.9 0.00 0.00 0.00 59 1010.2
20260509231232 21 220 3.2 11.3 0.00 0.00 0.00 60 1010.2
20260509230730 21 182 4.8 11.3 0.00 0.00 0.00 59 1010.3
20260509230227 21 211 9.7 12.9 0.00 0.00 0.00 57 1010.4
20260509225722 21 212 3.2 6.4 0.00 0.00 0.00 59 1010.4
20260509225218 22 242 4.8 6.4 0.00 0.00 0.00 57 1010.2
20260509224714 21 272 4.8 6.4 0.00 0.00 0.00 57 1010.4
20260509224211 22 235 4.8 9.7 0.00 0.00 0.00 56 1010.3
20260509223708 22 250 1.6 4.8 0.00 0.00 0.00 57 1010.5
20260509223205 22 225 4.8 6.4 0.00 0.00 0.00 58 1010.3
20260509222702 22 260 6.4 11.3 0.00 0.00 0.00 58 1010.3
20260509222157 22 219 6.4 6.4 0.00 0.00 0.00 60 1010.3
20260509221653 22 261 0.0 6.4 0.00 0.00 0.00 57 1010.2
20260509221149 21 223 4.8 12.9 0.00 0.00 0.00 57 1010.5
20260509220646 22 257 6.4 9.7 0.00 0.00 0.00 57 1010.3
20260509220142 21 222 3.2 9.7 0.00 0.00 0.00 60 1010.4
20260509215638 21 240 8.0 16.1 0.00 0.00 0.00 57 1010.4
20260509215134 21 249 6.4 11.3 0.00 0.00 0.00 58 1010.5
20260509214632 21 253 3.2 12.9 0.00 0.00 0.00 61 1010.6
20260509214128 21 269 9.7 12.9 0.00 0.00 0.00 58 1010.6
20260509213625 21 244 4.8 4.8 0.00 0.00 0.00 60 1010.7
20260509213121 21 232 3.2 6.4 0.00 0.00 0.00 66 1010.6
20260509212619 22 221 6.4 11.3 0.00 0.00 0.00 59 1010.5
20260509212115 22 227 8.0 9.7 0.00 0.00 0.00 58 1010.7
20260509211611 21 248 6.4 14.5 0.00 0.00 0.00 59 1010.6
20260509211108 22 211 6.4 14.5 0.00 0.00 0.00 62 1010.7
20260509210605 22 266 11.3 16.1 0.00 0.00 0.00 56 1010.6
20260509205601 21 234 1.6 4.8 0.00 0.00 0.00 60 1010.7
20260509205057 22 240 4.8 12.9 0.00 0.00 0.00 61 1010.8
20260509204553 22 249 1.6 4.8 0.00 0.00 0.00 57 1010.6
20260509204050 22 235 6.4 6.4 0.00 0.00 0.00 58 1010.6
20260509203546 21 282 1.6 3.2 0.00 0.00 0.00 64 1010.5
20260509203044 21 222 3.2 6.4 0.00 0.00 0.00 63 1010.7
20260509202539 20 221 6.4 12.9 0.00 0.00 0.00 64 1010.6
20260509202035 20 229 4.8 6.4 0.00 0.00 0.00 66 1010.7
20260509201530 21 185 6.4 6.4 0.00 0.00 0.00 65 1010.8
20260509201028 21 192 4.8 6.4 0.00 0.00 0.00 64 1010.8
20260509200527 20 156 6.4 11.3 0.00 0.00 0.00 65 1010.9
20260509200024 20 211 4.8 4.8 0.00 0.00 0.00 65 1011.0
20260509195520 20 205 3.2 3.2 0.00 0.00 0.00 68 1011.0
20260509195019 19 214 3.2 4.8 0.00 0.00 0.00 67 1011.0
20260509194514 19 213 6.4 9.7 0.00 0.00 0.00 66 1011.1
20260509194013 20 196 8.0 9.7 0.00 0.00 0.00 65 1011.1
20260509193512 20 252 8.0 11.3 0.00 0.00 0.00 63 1011.1
20260509193009 20 179 4.8 9.7 0.00 0.00 0.00 66 1011.0
20260509192505 20 223 0.0 9.7 0.00 0.00 0.00 65 1011.1
20260509192000 20 238 4.8 14.5 0.00 0.00 0.00 67 1011.2
20260509191455 20 259 4.8 9.7 0.00 0.00 0.00 62 1011.3
20260509190951 21 234 4.8 12.9 0.00 0.00 0.00 61 1011.2
20260509190449 21 243 4.8 12.9 0.00 0.00 0.00 60 1011.0
20260509185947 21 260 4.8 9.7 0.00 0.00 0.00 61 1011.1
20260509185444 21 233 1.6 4.8 0.00 0.00 0.00 64 1011.1
20260509184940 21 233 8.0 14.5 0.00 0.00 0.00 62 1011.2
20260509184439 20 213 9.7 16.1 0.00 0.00 0.00 62 1011.2
20260509183935 20 252 8.0 17.7 0.00 0.00 0.00 63 1011.2
20260509183435 21 199 11.3 14.5 0.00 0.00 0.00 61 1011.0
20260509182931 20 195 6.4 14.5 0.00 0.00 0.00 68 1011.1
20260509182428 20 199 3.2 14.5 0.00 0.00 0.00 65 1011.0
20260509181925 20 214 12.9 14.5 0.00 0.00 0.00 67 1011.0
20260509181423 19 223 1.6 9.7 0.00 0.00 0.00 71 1011.0
20260509180920 19 201 6.4 6.4 0.00 0.00 0.00 66 1010.9